Voltar ao catálogo

STARLINK-36319

AtivoComunicaçõesSSO
NORAD 67970·PAYLOAD·🇺🇸 United States

Lançado Feb 25, 2026 de Vandenberg Space Force Base

Loading…

Próximas Passagens (próximas 24 horas)

TLE

AtualizadoSource: CelesTrak SupGP

Época: Sep 15, 2026, 03:06 UTC

1 67970C 26038K   26258.12965278 -.00064715  00000+0 -20092-2 0  2588
2 67970  97.2845 266.5305 0001617  89.6309 116.2613 15.33466390    14

Acompanhe STARLINK-36319 em tempo real com AllMySat

Download on the App Store